Change the Weather History Date:

Friday, April 25, 2014

  Actual Average Record
Temperature  
Mean Temperature 57 °F -  
Max Temperature 66 °F 74 °F 98 °F (1946)
Min Temperature 48 °F 49 °F 39 °F (1944)
Degree Days  
Heating Degree Days 8    
Growing Degree Days 7 (Base 50)    
Moisture  
Dew Point 47 °F    
Average Humidity 67    
Maximum Humidity 82    
Minimum Humidity 48    
Precipitation  
Precipitation 0.28 in - - ()
Sea Level Pressure  
Sea Level Pressure 29.85 in    
Wind  
Wind Speed 9 mph (NNW)    
Max Wind Speed 20 mph    
Max Gust Speed 29 mph    
Visibility 10 miles    
Events Thunderstorm    
Averages and records for this station are not official NWS values.
T = Trace of Precipitation, MM = Missing Value Source: NWS Daily Summary

Daily Weather History Graph

Daily Weather History Graph

Search for Another Location

Airport or City:

Trip Planner

Search our weather history database for the weather conditions in past years. The results will help you decide how hot, cold, wet, or windy it might be!

Date:

Astronomy

Apr. 25, 2014 Rise Set
Actual Time 6:11 AM PDT 7:40 PM PDT
Civil Twilight 5:44 AM PDT 8:07 PM PDT
Nautical Twilight 5:11 AM PDT 8:40 PM PDT
Astronomical Twilight 4:37 AM PDT 9:14 PM PDT
Moon 3:55 AM PDT (4/25) 4:14 PM PDT (4/25)
Length of Visible Light 14h 23m
Length of Day
13h 29m
Waning Crescent, 14% of the Moon is Illuminated
Apr 25
Waning Crescent
Apr 28
New
May 6
First Quarter
May 14
Full
May 21
Last Quarter

Hourly Weather History & Observations

Time (PDT) Temp. Dew Point Humidity Pressure Visibility Wind Dir Wind Speed Gust Speed Precip Events Conditions
12:15 AM 62.6 °F 42.8 °F 48% 29.89 in 10.0 mi NW 6.9 mph - N/A   Clear
12:35 AM 62.6 °F 44.6 °F 52% 29.90 in 10.0 mi WNW 8.1 mph - N/A   Clear
12:55 AM 62.6 °F 44.6 °F 52% 29.90 in 10.0 mi WNW 10.4 mph - N/A   Clear
1:15 AM 60.8 °F 44.6 °F 55% 29.90 in 10.0 mi WNW 10.4 mph - N/A   Clear
1:35 AM 60.8 °F 44.6 °F 55% 29.91 in 10.0 mi WNW 11.5 mph - N/A   Clear
1:55 AM 60.8 °F 46.4 °F 59% 29.90 in 10.0 mi NW 13.8 mph - N/A   Clear
2:15 AM 62.6 °F 46.4 °F 55% 29.90 in 10.0 mi NNW 10.4 mph - N/A   Clear
2:35 AM 60.8 °F 46.4 °F 59% 29.89 in 10.0 mi North 6.9 mph - N/A   Clear
2:55 AM 60.8 °F 46.4 °F 59% 29.88 in 10.0 mi NNE 6.9 mph - N/A   Clear
3:15 AM 60.8 °F 46.4 °F 59% 29.88 in 10.0 mi North 8.1 mph - N/A   Clear
3:35 AM 60.8 °F 46.4 °F 59% 29.88 in 10.0 mi NNW 8.1 mph - N/A   Clear
3:55 AM 60.8 °F 46.4 °F 59% 29.88 in 10.0 mi NW 8.1 mph - N/A   Clear
4:15 AM 60.8 °F 46.4 °F 59% 29.87 in 10.0 mi NW 9.2 mph - N/A   Partly Cloudy
4:55 AM 60.8 °F 46.4 °F 59% 29.87 in 10.0 mi WNW 9.2 mph - N/A   Scattered Clouds
5:15 AM 59.0 °F 46.4 °F 63% 29.88 in 10.0 mi WNW 8.1 mph - N/A   Mostly Cloudy
5:35 AM 59.0 °F 48.2 °F 67% 29.87 in 10.0 mi NW 8.1 mph - N/A   Mostly Cloudy
5:55 AM 59.0 °F 48.2 °F 67% 29.87 in 10.0 mi NW 9.2 mph - N/A   Mostly Cloudy
6:15 AM 60.8 °F 46.4 °F 59% 29.88 in 10.0 mi NW 10.4 mph - N/A   Overcast
6:35 AM 60.8 °F 46.4 °F 59% 29.89 in 10.0 mi NW 10.4 mph - N/A   Overcast
6:55 AM 60.8 °F 46.4 °F 59% 29.88 in 10.0 mi NNW 10.4 mph - N/A   Overcast
7:15 AM 59.0 °F 48.2 °F 67% 29.88 in 10.0 mi NNW 8.1 mph - N/A   Overcast
7:35 AM 59.0 °F 48.2 °F 67% 29.88 in 10.0 mi North 6.9 mph - N/A   Mostly Cloudy
7:55 AM 59.0 °F 48.2 °F 67% 29.87 in 10.0 mi North 8.1 mph - N/A   Mostly Cloudy
8:15 AM 59.0 °F 48.2 °F 67% 29.87 in 10.0 mi North 9.2 mph - N/A   Overcast
8:35 AM 60.8 °F 48.2 °F 63% 29.88 in 10.0 mi NNW 9.2 mph - N/A   Mostly Cloudy
8:55 AM 60.8 °F 48.2 °F 63% 29.90 in 10.0 mi SW 4.6 mph - N/A   Mostly Cloudy
9:15 AM 59.0 °F 50.0 °F 72% 29.90 in 10.0 mi Calm Calm - N/A   Overcast
9:35 AM 59.0 °F 50.0 °F 72% 29.89 in 10.0 mi NW 5.8 mph - N/A   Overcast
9:55 AM 59.0 °F 51.8 °F 77% 29.90 in 10.0 mi WNW 9.2 mph - N/A   Mostly Cloudy
10:15 AM 59.0 °F 50.0 °F 72% 29.89 in 10.0 mi NNW 8.1 mph - N/A   Mostly Cloudy
10:35 AM 59.0 °F 50.0 °F 72% 29.91 in 10.0 mi West 10.4 mph - N/A   Overcast
10:55 AM 60.8 °F 50.0 °F 68% 29.91 in 10.0 mi NW 10.4 mph - N/A   Mostly Cloudy
11:15 AM 60.8 °F 50.0 °F 68% 29.91 in 10.0 mi NW 11.5 mph - N/A   Mostly Cloudy
11:35 AM 59.0 °F 50.0 °F 72% 29.91 in 10.0 mi WNW 10.4 mph - N/A   Overcast
11:55 AM 57.2 °F 48.2 °F 72% 29.90 in 10.0 mi NW 12.7 mph - N/A   Mostly Cloudy
12:15 PM 57.2 °F 48.2 °F 72% 29.90 in 10.0 mi NW 8.1 mph - N/A   Overcast
12:35 PM 57.2 °F 50.0 °F 77% 29.89 in 10.0 mi NNW 8.1 mph - N/A   Overcast
12:55 PM 59.0 °F 50.0 °F 72% 29.87 in 10.0 mi NE 8.1 mph - N/A   Overcast
1:15 PM 62.6 °F 51.8 °F 68% 29.86 in 10.0 mi NNE 5.8 mph - N/A   Scattered Clouds
1:35 PM 62.6 °F 51.8 °F 68% 29.85 in 10.0 mi ENE 6.9 mph - N/A   Partly Cloudy
1:55 PM 66.2 °F 51.8 °F 60% 29.84 in 10.0 mi SE 8.1 mph - N/A   Clear
2:15 PM 64.4 °F 48.2 °F 56% 29.83 in 10.0 mi SE 8.1 mph - N/A   Partly Cloudy
2:35 PM 64.4 °F 50.0 °F 59% 29.83 in 10.0 mi SSE 6.9 mph - N/A   Mostly Cloudy
2:55 PM 64.4 °F 50.0 °F 59% 29.81 in 10.0 mi ESE 8.1 mph - N/A   Mostly Cloudy
3:15 PM 64.4 °F 48.2 °F 56% 29.81 in 9.0 mi SSW 4.6 mph - N/A   Mostly Cloudy
3:35 PM 64.4 °F 51.8 °F 64% 29.79 in 10.0 mi SSW 6.9 mph - N/A Thunderstorm Mostly Cloudy
3:55 PM 64.4 °F 51.8 °F 64% 29.79 in 10.0 mi West 3.5 mph - N/A Thunderstorm Mostly Cloudy
4:15 PM 59.0 °F 46.4 °F 63% 29.80 in 10.0 mi NNW 11.5 mph - 0.01 in Thunderstorm Thunderstorm
4:35 PM 55.4 °F 46.4 °F 72% 29.79 in 10.0 mi North 9.2 mph - 0.02 in Thunderstorm Thunderstorm
4:55 PM 55.4 °F 46.4 °F 72% 29.80 in 10.0 mi North 9.2 mph - 0.03 in   Overcast
5:15 PM 55.4 °F 46.4 °F 72% 29.80 in 10.0 mi NNE 3.5 mph - 0.02 in   Overcast
5:35 PM 55.4 °F 46.4 °F 72% 29.79 in 10.0 mi Calm Calm - 0.03 in   Overcast
5:55 PM 55.4 °F 48.2 °F 77% 29.79 in 10.0 mi East 5.8 mph - 0.04 in   Overcast
6:15 PM 55.4 °F 48.2 °F 77% 29.78 in 10.0 mi East 8.1 mph - N/A   Overcast
6:35 PM 55.4 °F 48.2 °F 77% 29.78 in 10.0 mi East 8.1 mph - N/A   Mostly Cloudy
6:55 PM 55.4 °F 48.2 °F 77% 29.78 in 10.0 mi East 8.1 mph - N/A   Overcast
7:15 PM 55.4 °F 48.2 °F 77% 29.79 in 10.0 mi East 6.9 mph - N/A   Overcast
7:35 PM 55.4 °F 46.4 °F 72% 29.79 in 10.0 mi ESE 9.2 mph - N/A   Overcast
7:55 PM 53.6 °F 46.4 °F 77% 29.77 in 9.0 mi ESE 8.1 mph - 0.01 in   Overcast
8:15 PM 53.6 °F 46.4 °F 77% 29.77 in 10.0 mi SE 9.2 mph - N/A   Overcast
8:35 PM 48.2 °F 42.8 °F 82% 29.83 in 8.0 mi NNW 17.3 mph 28.8 mph 0.11 in   Mostly Cloudy
8:55 PM 48.2 °F 42.8 °F 82% 29.82 in 9.0 mi NNW 19.6 mph - 0.17 in   Overcast
9:15 PM 48.2 °F 42.8 °F 82% 29.83 in 10.0 mi NNW 18.4 mph 23.0 mph 0.02 in   Mostly Cloudy
9:35 PM 48.2 °F 42.8 °F 82% 29.84 in 10.0 mi North 15.0 mph 18.4 mph 0.02 in   Overcast
10:15 PM 48.2 °F 41.0 °F 76% 29.84 in 10.0 mi North 8.1 mph - N/A   Mostly Cloudy
10:35 PM 48.2 °F 42.8 °F 82% 29.84 in 10.0 mi NE 11.5 mph - N/A   Mostly Cloudy
10:55 PM 48.2 °F 41.0 °F 76% 29.84 in 10.0 mi NNE 5.8 mph - N/A   Overcast
11:15 PM 48.2 °F 39.2 °F 71% 29.84 in 10.0 mi NE 6.9 mph - N/A   Overcast
11:35 PM 48.2 °F 39.2 °F 71% 29.85 in 10.0 mi NE 4.6 mph - N/A   Overcast
11:55 PM 48.2 °F 41.0 °F 76% 29.85 in 10.0 mi Calm Calm - 0.01 in   Overcast